Location: Napier
(39.4830°S, 176.9170°E)
Time: 02:33:42
(UTC+12:00)

PAYLOAD B - Pass Details

Date: 15 August 2020
Orbit: 849 x 871 km, 99.1° (Epoch: 19 September)

Event Time Altitude Azimuth Distance (km) Brightness Sun altitude
Rises 18:14:20 0° 168° (SSE) 3,497 7.2 -8.3°
Reaches altitude 10° 18:16:45 10° 169° (SSE) 2,551 6.5 -8.8°
Maximum altitude 18:22:26 79° 254° (WSW) 898 4.5 -9.8°
Drops below altitude 10° 18:28:01 10° 340° (NNW) 2,510 7.1 -10.9°
Sets 18:30:23 0° 340° (NNW) 3,437 7.8 -11.4°
